Location: Brno
(49.2000°N, 16.6330°E)
Time: 18:46:55
(UTC+01:00)

Cosmos 2227 - Visible Passes

Search period start: 10 February 2016 00:00
Search period end: 20 February 2016 00:00
Orbit: 834 x 862 km, 71.0° (Epoch: 08 February)

Date Brightness Start Highest point End Pass type
(mag) Time Alt. Az. Time Alt. Az. Time Alt. Az.
10 Feb 6.8 02:50:48 14° E 02:51:12 14° E 02:53:55 10° ENE visible
10 Feb 4.3 04:32:48 49° S 04:34:26 78° ESE 04:40:12 10° NNE visible
10 Feb 5.3 06:14:48 11° W 06:19:17 25° NW 06:23:59 10° NNE visible
11 Feb 6.8 02:38:41 13° E 02:38:41 13° E 02:40:45 10° ENE visible
11 Feb 4.3 04:20:40 68° S 04:21:20 77° ESE 04:27:05 10° NNE visible
11 Feb 5.3 06:02:40 15° W 06:06:09 25° NW 06:10:52 10° NNE visible
12 Feb 6.9 02:26:25 12° E 02:26:25 12° E 02:27:34 10° ENE visible
12 Feb 4.3 04:08:24 75° E 04:08:24 75° E 04:13:59 10° NNE visible
12 Feb 5.3 05:50:23 19° W 05:53:02 26° NW 05:57:47 10° NNE visible
13 Feb 7.1 02:14:02 11° ENE 02:14:02 11° ENE 02:14:24 10° ENE visible
13 Feb 4.6 03:56:01 62° NE 03:56:01 62° NE 04:00:53 10° NNE visible
13 Feb 5.3 05:37:59 22° WNW 05:39:55 26° NW 05:44:41 10° NNE visible
14 Feb 4.9 03:43:33 50° NE 03:43:33 50° NE 03:47:46 10° NNE visible
14 Feb 5.3 05:25:30 24° WNW 05:26:48 26° NW 05:31:35 10° NNE visible
15 Feb 5.3 03:31:00 41° NE 03:31:00 41° NE 03:34:40 10° NNE visible
15 Feb 5.3 05:12:57 26° NW 05:13:41 26° NW 05:18:29 10° NNE visible
16 Feb 5.6 03:18:23 34° NE 03:18:23 34° NE 03:21:33 10° NNE visible
16 Feb 5.3 05:00:21 27° NW 05:00:35 27° NW 05:05:23 10° NNE visible
17 Feb 5.9 03:05:44 29° NE 03:05:44 29° NE 03:08:26 10° NNE visible
17 Feb 5.3 04:47:41 27° NW 04:47:41 27° NW 04:52:17 10° NNE visible
18 Feb 6.1 02:53:02 25° NE 02:53:02 25° NE 02:55:20 10° NNE visible
18 Feb 5.4 04:34:59 27° NNW 04:34:59 27° NNW 04:39:11 10° NNE visible
19 Feb 6.3 02:40:19 22° NE 02:40:19 22° NE 02:42:13 10° NNE visible
19 Feb 5.5 04:22:15 26° NNW 04:22:15 26° NNW 04:26:05 10° NNE visible
